Weather History for Hutchinson, MN

Change the Weather History Date:

Wednesday, March 5, 2014

  Actual Average Record
Temperature  
Mean Temperature 14 °F -  
Max Temperature 22 °F 35 °F 61 °F (1983)
Min Temperature 7 °F 15 °F -15 °F (1960)
Degree Days  
Heating Degree Days 50    
Moisture  
Dew Point 9 °F    
Average Humidity 79    
Maximum Humidity 89    
Minimum Humidity 67    
Precipitation  
Precipitation 0.00 in - - ()
Sea Level Pressure  
Sea Level Pressure 30.35 in    
Wind  
Wind Speed 7 mph (East)    
Max Wind Speed 16 mph    
Max Gust Speed -    
Visibility 9 miles    
Events Snow    
Averages and records for this station are not official NWS values.
T = Trace of Precipitation, MM = Missing Value Source: NWS Daily Summary

Daily Weather History Graph

Daily Weather History Graph

Search for Another Location

Airport:

Trip Planner

Search our weather history database for the weather conditions in past years. The results will help you decide how hot, cold, wet, or windy it might be!

Date:

Astronomy

Mar. 05, 2014 Rise Set
Actual Time 6:48 AM CST 6:10 PM CST
Civil Twilight 6:18 AM CST 6:39 PM CST
Nautical Twilight 5:45 AM CST 7:13 PM CST
Astronomical Twilight 5:10 AM CST 7:47 PM CST
Moon 9:01 AM CST (3/5) 11:34 PM CST (3/5)
Length of Visible Light 12h 20m
Length of Day
11h 22m
Waxing Crescent, 23% of the Moon is Illuminated
Mar 5
Waxing Crescent
Mar 8
First Quarter
Mar 16
Full
Mar 23
Last Quarter
Mar 30
New

Hourly Weather History & Observations

Time (CST) Temp. Windchill Dew Point Humidity Pressure Visibility Wind Dir Wind Speed Gust Speed Precip Events Conditions
12:13 AM 14.4 °F 3.3 °F 11.3 °F 88% 30.28 in 3.0 mi NE 8.1 mph - N/A Snow Light Snow
12:33 AM 14.4 °F 3.3 °F 11.1 °F 87% 30.29 in 4.0 mi NE 8.1 mph - N/A Snow Light Snow
12:53 AM 14.4 °F 4.3 °F 11.1 °F 87% 30.29 in 4.0 mi NE 6.9 mph - N/A Snow Light Snow
1:13 AM 14.5 °F 3.6 °F 10.9 °F 86% 30.30 in 3.0 mi NE 8.1 mph - N/A Snow Light Snow
1:33 AM 14.5 °F 4.6 °F 10.9 °F 86% 30.31 in 4.0 mi NE 6.9 mph - N/A Snow Light Snow
1:53 AM 14.4 °F 4.3 °F 10.9 °F 86% 30.30 in 3.0 mi NE 6.9 mph - N/A Snow Light Snow
2:13 AM 14.0 °F 3.9 °F 10.8 °F 87% 30.30 in 4.0 mi NE 6.9 mph - N/A Snow Light Snow
2:33 AM 13.5 °F 4.4 °F 10.4 °F 88% 30.30 in 4.0 mi ENE 5.8 mph - N/A Snow Light Snow
2:53 AM 13.1 °F 5.4 °F 10.2 °F 88% 30.31 in 5.0 mi NE 4.6 mph - N/A Snow Light Snow
3:13 AM 13.6 °F 3.5 °F 10.4 °F 87% 30.31 in 7.0 mi ENE 6.9 mph - N/A Snow Light Snow
3:33 AM 14.0 °F 5.1 °F 10.4 °F 86% 30.31 in 7.0 mi ENE 5.8 mph - N/A Snow Light Snow
3:53 AM 14.0 °F 5.1 °F 10.2 °F 85% 30.31 in 10.0 mi ENE 5.8 mph - N/A Snow Light Snow
4:13 AM 12.9 °F 5.2 °F 8.4 °F 82% 30.32 in 10.0 mi NE 4.6 mph - N/A   Mostly Cloudy
4:33 AM 12.2 °F 4.3 °F 8.4 °F 85% 30.32 in 10.0 mi ENE 4.6 mph - N/A Snow Light Snow
4:53 AM 10.6 °F 2.5 °F 7.0 °F 85% 30.33 in 10.0 mi NE 4.6 mph - N/A   Scattered Clouds
5:13 AM 9.5 °F 1.2 °F 6.1 °F 86% 30.33 in 10.0 mi NE 4.6 mph - N/A Snow Light Snow
5:33 AM 9.5 °F 1.2 °F 6.8 °F 89% 30.34 in 10.0 mi NE 4.6 mph - N/A   Scattered Clouds
5:53 AM 7.5 °F 0.8 °F 4.5 °F 87% 30.34 in 10.0 mi ENE 3.5 mph - N/A   Overcast
6:13 AM 9.7 °F - 6.8 °F 88% 30.34 in 10.0 mi Calm Calm - N/A   Overcast
6:32 AM 10.8 °F - 7.3 °F 86% 30.35 in 10.0 mi Calm Calm - N/A   Overcast
6:53 AM 9.7 °F - 5.5 °F 83% 30.35 in 10.0 mi Calm Calm - N/A   Mostly Cloudy
7:13 AM 9.3 °F - 5.2 °F 83% 30.36 in 10.0 mi Calm Calm - N/A   Scattered Clouds
7:33 AM 9.7 °F 3.2 °F 4.8 °F 81% 30.37 in 10.0 mi ENE 3.5 mph - N/A   Clear
7:53 AM 8.6 °F 2.0 °F 3.9 °F 81% 30.39 in 10.0 mi NE 3.5 mph - N/A   Clear
8:13 AM 10.9 °F 2.9 °F 4.6 °F 76% 30.39 in 10.0 mi NE 4.6 mph - N/A   Clear
8:32 AM 12.0 °F 1.5 °F 5.4 °F 75% 30.40 in 10.0 mi NE 6.9 mph - N/A   Scattered Clouds
8:53 AM 13.1 °F 2.8 °F 5.9 °F 73% 30.41 in 10.0 mi ENE 6.9 mph - N/A   Clear
9:13 AM 14.0 °F 3.9 °F 5.9 °F 70% 30.41 in 10.0 mi NE 6.9 mph - N/A   Clear
9:32 AM 14.4 °F 3.3 °F 6.6 °F 71% 30.41 in 10.0 mi NE 8.1 mph - N/A   Clear
9:53 AM 15.4 °F 5.6 °F 6.8 °F 69% 30.41 in 10.0 mi ENE 6.9 mph - N/A   Scattered Clouds
10:13 AM 16.5 °F 6.0 °F 7.7 °F 68% 30.42 in 10.0 mi East 8.1 mph - N/A   Scattered Clouds
10:33 AM 16.5 °F 6.0 °F 8.2 °F 70% 30.41 in 10.0 mi East 8.1 mph - N/A   Clear
10:53 AM 18.1 °F 5.0 °F 10.0 °F 71% 30.41 in 10.0 mi ESE 12.7 mph - N/A   Clear
11:13 AM 18.5 °F 6.1 °F 10.4 °F 71% 30.40 in 10.0 mi ESE 11.5 mph - N/A   Clear
11:33 AM 19.4 °F 7.2 °F 11.7 °F 72% 30.40 in 10.0 mi ESE 11.5 mph - N/A   Clear
11:53 AM 20.1 °F 7.5 °F 12.0 °F 71% 30.40 in 10.0 mi ESE 12.7 mph - N/A   Clear
12:13 PM 20.7 °F 6.6 °F 12.2 °F 70% 30.40 in 1.2 mi ESE 16.1 mph - N/A Snow Light Snow
12:33 PM 21.0 °F 8.6 °F 12.2 °F 69% 30.39 in 0.8 mi ESE 12.7 mph - N/A   Haze
12:53 PM 21.6 °F 9.3 °F 13.3 °F 70% 30.39 in 4.0 mi SE 12.7 mph - N/A   Haze
1:13 PM 21.7 °F 10.2 °F 13.1 °F 69% 30.38 in 7.0 mi SE 11.5 mph - N/A   Clear
1:33 PM 21.6 °F 9.9 °F 12.9 °F 69% 30.38 in 10.0 mi ESE 11.5 mph - N/A   Clear
1:52 PM 21.9 °F 9.8 °F 12.9 °F 68% 30.38 in 10.0 mi ESE 12.7 mph - N/A   Clear
2:13 PM 21.9 °F 10.4 °F 12.7 °F 68% 30.38 in 10.0 mi ESE 11.5 mph - N/A   Clear
2:33 PM 22.1 °F 10.6 °F 12.7 °F 67% 30.38 in 10.0 mi ESE 11.5 mph - N/A   Clear
2:53 PM 21.4 °F 10.4 °F 12.7 °F 69% 30.38 in 7.0 mi ESE 10.4 mph - N/A   Scattered Clouds
3:13 PM 21.2 °F 9.5 °F 12.9 °F 70% 30.37 in 10.0 mi ESE 11.5 mph - N/A   Mostly Cloudy
3:33 PM 21.9 °F 14.5 °F 13.8 °F 71% 30.37 in 10.0 mi SSE 5.8 mph - N/A   Overcast
3:53 PM 22.3 °F 14.9 °F 13.8 °F 70% 30.37 in 10.0 mi SSE 5.8 mph - N/A   Overcast
4:13 PM 22.1 °F 12.0 °F 13.3 °F 69% 30.37 in 10.0 mi SE 9.2 mph - N/A   Overcast
4:33 PM 21.6 °F 10.6 °F 13.1 °F 70% 30.36 in 10.0 mi SE 10.4 mph - N/A   Overcast
4:53 PM 20.3 °F 9.0 °F 13.1 °F 74% 30.35 in 10.0 mi SE 10.4 mph - N/A   Overcast
5:13 PM 19.6 °F 8.1 °F 14.0 °F 79% 30.35 in 7.0 mi SE 10.4 mph - N/A Snow Light Snow
5:32 PM 19.8 °F 9.9 °F 14.0 °F 78% 30.35 in 10.0 mi SE 8.1 mph - N/A Snow Light Snow
5:53 PM 17.6 °F - 12.0 °F 79% 30.36 in 10.0 mi Calm Calm - N/A   Overcast
6:12 PM 16.9 °F 11.5 °F 11.8 °F 81% 30.36 in 7.0 mi SSE 3.5 mph - N/A Snow Light Snow
6:33 PM 17.4 °F 9.1 °F 12.9 °F 83% 30.35 in 7.0 mi SE 5.8 mph - N/A Snow Light Snow
6:53 PM 17.2 °F 6.8 °F 12.2 °F 81% 30.34 in 10.0 mi SE 8.1 mph - N/A Snow Light Snow
7:13 PM 15.1 °F 4.2 °F 10.2 °F 81% 30.34 in 10.0 mi SE 8.1 mph - N/A   Clear
7:33 PM 12.4 °F 0.9 °F 8.2 °F 83% 30.34 in 10.0 mi SE 8.1 mph - N/A   Clear
7:53 PM 11.8 °F -0.7 °F 7.5 °F 83% 30.33 in 10.0 mi SE 9.2 mph - N/A   Clear
8:13 PM 11.3 °F -1.3 °F 7.5 °F 85% 30.32 in 10.0 mi SE 9.2 mph - N/A   Clear
8:33 PM 12.0 °F 2.7 °F 8.1 °F 84% 30.33 in 10.0 mi SSE 5.8 mph - N/A   Clear
8:53 PM 11.1 °F - 7.2 °F 84% 30.33 in 10.0 mi Calm Calm - N/A   Clear
9:13 PM 12.2 °F 4.3 °F 8.1 °F 83% 30.33 in 10.0 mi SSE 4.6 mph - N/A   Clear
9:33 PM 12.0 °F 2.7 °F 8.1 °F 84% 30.32 in 10.0 mi SSE 5.8 mph - N/A   Clear
9:53 PM 11.7 °F 5.5 °F 7.9 °F 85% 30.32 in 10.0 mi SSE 3.5 mph - N/A   Clear
10:13 PM 9.5 °F -0.3 °F 6.6 °F 88% 30.31 in 10.0 mi SE 5.8 mph - N/A   Clear
10:33 PM 8.1 °F -0.5 °F 5.2 °F 88% 30.31 in 10.0 mi SE 4.6 mph - N/A   Clear
10:53 PM 9.5 °F 3.0 °F 6.8 °F 89% 30.31 in 10.0 mi SE 3.5 mph - N/A   Scattered Clouds
11:13 PM 8.6 °F - 5.7 °F 88% 30.31 in 10.0 mi Calm Calm - N/A   Mostly Cloudy
11:33 PM 9.3 °F 1.0 °F 6.3 °F 87% 30.30 in 10.0 mi SSE 4.6 mph - N/A   Scattered Clouds
11:53 PM 10.2 °F -0.6 °F 7.0 °F 87% 30.29 in 10.0 mi SE 6.9 mph - N/A   Clear